SWA1461 KMKE-KBNA

Flight info

Callsign SWA1461
Flight time 1h 12m
Altitude 41000
Route UECKR6 DELHI TONES RYYMN3
Aircraft B738/M-SADE2E3GIJ4RWZ/LB1D1

Departure

Time 2026-04-25 09:55
Airport General Mitchell International Airport (KMKE)

Arrival

Time 2026-04-25 11:08
Airport Nashville International Airport (KBNA)
Time Latitude Longitude Altitude Speed Heading
2026-04-25 09:26 42.95112 -87.90112 681 ft 0 kts 166°
2026-04-25 09:43 42.95126 -87.90117 684 ft 2 kts 166°
2026-04-25 09:43 42.95136 -87.90120 683 ft 2 kts 166°
2026-04-25 09:43 42.95152 -87.90126 679 ft 2 kts 165°
2026-04-25 09:44 42.95167 -87.90133 679 ft 2 kts 134°
2026-04-25 09:44 42.95173 -87.90148 679 ft 1 kts 78°
2026-04-25 09:44 42.95172 -87.90153 682 ft 0 kts 75°
2026-04-25 09:45 42.95185 -87.90135 685 ft 7 kts 46°
2026-04-25 09:45 42.95202 -87.90059 686 ft 9 kts 106°
2026-04-25 09:45 42.95165 -87.89987 687 ft 9 kts 130°
2026-04-25 09:46 42.95123 -87.89923 685 ft 9 kts 131°
2026-04-25 09:46 42.95082 -87.89860 687 ft 9 kts 131°
2026-04-25 09:46 42.95033 -87.89813 687 ft 8 kts 154°
2026-04-25 09:46 42.94984 -87.89774 683 ft 8 kts 133°
2026-04-25 09:47 42.94974 -87.89700 687 ft 8 kts 92°
2026-04-25 09:47 42.94966 -87.89627 687 ft 8 kts 116°
2026-04-25 09:47 42.94920 -87.89599 685 ft 7 kts 180°
2026-04-25 09:47 42.94868 -87.89606 683 ft 7 kts 186°
2026-04-25 09:48 42.94812 -87.89614 684 ft 10 kts 186°
2026-04-25 09:48 42.94735 -87.89626 681 ft 13 kts 186°
2026-04-25 09:48 42.94640 -87.89644 684 ft 15 kts 188°
2026-04-25 09:48 42.94542 -87.89662 683 ft 14 kts 188°
2026-04-25 09:49 42.94446 -87.89679 687 ft 13 kts 187°
2026-04-25 09:49 42.94355 -87.89693 686 ft 13 kts 186°
2026-04-25 09:49 42.94267 -87.89705 687 ft 13 kts 186°
2026-04-25 09:49 42.94183 -87.89733 683 ft 12 kts 207°
2026-04-25 09:50 42.94119 -87.89808 685 ft 12 kts 224°
2026-04-25 09:50 42.94054 -87.89875 685 ft 12 kts 200°
2026-04-25 09:50 42.93976 -87.89886 685 ft 11 kts 182°
2026-04-25 09:50 42.93898 -87.89887 682 ft 11 kts 180°
2026-04-25 09:51 42.93822 -87.89888 684 ft 11 kts 180°
2026-04-25 09:51 42.93748 -87.89889 685 ft 10 kts 180°
2026-04-25 09:51 42.93676 -87.89889 685 ft 10 kts 180°
2026-04-25 09:51 42.93607 -87.89891 683 ft 10 kts 181°
2026-04-25 09:52 42.93539 -87.89893 683 ft 10 kts 181°
2026-04-25 09:52 42.93466 -87.89896 681 ft 11 kts 181°
2026-04-25 09:52 42.93386 -87.89901 683 ft 12 kts 184°
2026-04-25 09:52 42.93299 -87.89914 683 ft 13 kts 187°
2026-04-25 09:53 42.93211 -87.89929 683 ft 13 kts 187°
2026-04-25 09:53 42.93134 -87.89943 684 ft 9 kts 187°
2026-04-25 09:53 42.93080 -87.89912 683 ft 9 kts 122°
2026-04-25 09:53 42.93068 -87.89831 685 ft 9 kts 98°
2026-04-25 09:54 42.93074 -87.89767 686 ft 5 kts 38°
2026-04-25 09:54 42.93110 -87.89754 685 ft 6 kts
2026-04-25 09:54 42.93333 -87.89716 684 ft 69 kts
2026-04-25 09:54 42.94032 -87.89599 683 ft 133 kts
2026-04-25 09:55 42.95117 -87.89421 869 ft 171 kts
2026-04-25 09:55 42.96311 -87.89217 1636 ft 178 kts
2026-04-25 09:55 42.97634 -87.89006 1961 ft 205 kts
2026-04-25 09:55 42.99143 -87.88737 2200 ft 232 kts
2026-04-25 09:56 43.00772 -87.88331 2799 ft 243 kts 19°
2026-04-25 09:56 43.02149 -87.86979 3585 ft 252 kts 48°
2026-04-25 09:56 43.02915 -87.84765 4221 ft 269 kts 76°
2026-04-25 09:56 43.02896 -87.82159 4929 ft 280 kts 94°
2026-04-25 09:57 43.02661 -87.79524 5636 ft 284 kts 92°
2026-04-25 09:57 43.02433 -87.76848 6502 ft 283 kts 92°
2026-04-25 09:57 43.02201 -87.74164 7293 ft 285 kts 93°
2026-04-25 09:57 43.01970 -87.71464 8057 ft 288 kts 93°
2026-04-25 09:58 43.01655 -87.68740 8842 ft 295 kts 105°
2026-04-25 09:58 43.00629 -87.66292 9660 ft 302 kts 131°
2026-04-25 09:58 42.98917 -87.64621 10429 ft 308 kts 156°
2026-04-25 09:58 42.96789 -87.63988 11020 ft 318 kts 178°
2026-04-25 09:59 42.94595 -87.63948 11751 ft 322 kts 181°
2026-04-25 09:59 42.92332 -87.63981 12547 ft 326 kts 182°
2026-04-25 09:59 42.90047 -87.64034 13346 ft 331 kts 182°
2026-04-25 09:59 42.87728 -87.64085 14112 ft 335 kts 182°
2026-04-25 10:00 42.85386 -87.64131 14879 ft 338 kts 182°
2026-04-25 10:00 42.83020 -87.64171 15695 ft 341 kts 182°
2026-04-25 10:00 42.80636 -87.64208 16501 ft 344 kts 182°
2026-04-25 10:00 42.78235 -87.64242 17322 ft 346 kts 182°
2026-04-25 10:01 42.75812 -87.64276 18129 ft 349 kts 182°
2026-04-25 10:01 42.73406 -87.64309 18863 ft 352 kts 182°
2026-04-25 10:01 42.70950 -87.64343 19594 ft 354 kts 183°
2026-04-25 10:01 42.68481 -87.64350 20337 ft 355 kts 180°
2026-04-25 10:02 42.66001 -87.64198 21053 ft 358 kts 179°
2026-04-25 10:02 42.63506 -87.63983 21760 ft 360 kts 179°
2026-04-25 10:02 42.60992 -87.63764 22459 ft 362 kts 179°
2026-04-25 10:02 42.58465 -87.63560 23140 ft 365 kts 179°
2026-04-25 10:03 42.55917 -87.63368 23741 ft 369 kts 180°
2026-04-25 10:03 42.53340 -87.63179 24300 ft 370 kts 180°
2026-04-25 10:03 42.50766 -87.62979 24928 ft 371 kts 179°
2026-04-25 10:03 42.48186 -87.62769 25541 ft 371 kts 180°
2026-04-25 10:04 42.45600 -87.62560 26125 ft 372 kts 180°
2026-04-25 10:04 42.43041 -87.62361 26682 ft 373 kts 181°
2026-04-25 10:04 42.40458 -87.62579 27216 ft 371 kts 192°
2026-04-25 10:04 42.37909 -87.63196 27778 ft 372 kts 194°
2026-04-25 10:05 42.35360 -87.63833 28341 ft 373 kts 193°
2026-04-25 10:05 42.32802 -87.64421 28894 ft 374 kts 192°
2026-04-25 10:05 42.30268 -87.65215 29393 ft 372 kts 202°
2026-04-25 10:05 42.27867 -87.66545 29900 ft 373 kts 206°
2026-04-25 10:06 42.25491 -87.67966 30342 ft 374 kts 206°
2026-04-25 10:06 42.23134 -87.69376 30763 ft 375 kts 206°
2026-04-25 10:06 42.20734 -87.70785 31201 ft 375 kts 205°
2026-04-25 10:06 42.18324 -87.72175 31573 ft 379 kts 205°
2026-04-25 10:07 42.15879 -87.73570 31855 ft 382 kts 205°
2026-04-25 10:07 42.13432 -87.74958 32284 ft 382 kts 205°
2026-04-25 10:07 42.10981 -87.76344 32735 ft 381 kts 205°
2026-04-25 10:07 42.08522 -87.77697 33134 ft 383 kts 201°
2026-04-25 10:08 42.05887 -87.78385 33446 ft 391 kts 186°
2026-04-25 10:08 42.03155 -87.78443 33806 ft 393 kts 185°
2026-04-25 10:08 42.00417 -87.78453 34125 ft 394 kts 185°
2026-04-25 10:08 41.97700 -87.78492 34365 ft 396 kts 185°
2026-04-25 10:09 41.94932 -87.78560 34565 ft 399 kts 186°
2026-04-25 10:09 41.92144 -87.78590 34799 ft 402 kts 183°
2026-04-25 10:09 41.89329 -87.78408 35030 ft 406 kts 181°
2026-04-25 10:09 41.86496 -87.78119 35238 ft 409 kts 180°
2026-04-25 10:10 41.83651 -87.77795 35447 ft 411 kts 180°
2026-04-25 10:10 41.80796 -87.77468 35652 ft 414 kts 180°
2026-04-25 10:10 41.77948 -87.77153 35854 ft 416 kts 180°
2026-04-25 10:10 41.75058 -87.76846 36032 ft 418 kts 181°
2026-04-25 10:11 41.72155 -87.76548 36252 ft 419 kts 181°
2026-04-25 10:11 41.69242 -87.76256 36470 ft 420 kts 181°
2026-04-25 10:11 41.66321 -87.75968 36680 ft 421 kts 181°
2026-04-25 10:11 41.63391 -87.75681 36938 ft 421 kts 181°
2026-04-25 10:12 41.60468 -87.75395 37203 ft 421 kts 181°
2026-04-25 10:12 41.57541 -87.75110 37444 ft 422 kts 181°
2026-04-25 10:12 41.51702 -87.74543 37903 ft 423 kts 181°
2026-04-25 10:13 41.48768 -87.74259 38142 ft 423 kts 181°
2026-04-25 10:13 41.45825 -87.73973 38318 ft 424 kts 181°
2026-04-25 10:13 41.42877 -87.73688 38536 ft 424 kts 181°
2026-04-25 10:13 41.39935 -87.73403 38734 ft 424 kts 181°
2026-04-25 10:14 41.36988 -87.73118 38899 ft 425 kts 181°
2026-04-25 10:14 41.34037 -87.72833 39059 ft 425 kts 181°
2026-04-25 10:14 41.31086 -87.72548 39210 ft 425 kts 181°
2026-04-25 10:14 41.28173 -87.72266 39431 ft 424 kts 181°
2026-04-25 10:15 41.25230 -87.71982 39597 ft 424 kts 181°
2026-04-25 10:15 41.22266 -87.71697 39709 ft 426 kts 181°
2026-04-25 10:15 41.19310 -87.71413 39861 ft 426 kts 181°
2026-04-25 10:15 41.16352 -87.71129 39977 ft 427 kts 181°
2026-04-25 10:16 41.13370 -87.70844 39977 ft 430 kts 181°
2026-04-25 10:16 41.07415 -87.70274 39987 ft 431 kts 181°
2026-04-25 10:17 41.01420 -87.69697 39992 ft 430 kts 181°
2026-04-25 10:17 40.95438 -87.69124 39988 ft 430 kts 181°
2026-04-25 10:18 40.89506 -87.68558 39979 ft 429 kts 181°
2026-04-25 10:18 40.83562 -87.67992 39958 ft 427 kts 181°
2026-04-25 10:19 40.77622 -87.67427 39952 ft 426 kts 181°
2026-04-25 10:19 40.71703 -87.66866 39949 ft 425 kts 181°
2026-04-25 10:20 40.65833 -87.66310 39946 ft 425 kts 182°
2026-04-25 10:20 40.59939 -87.65753 39945 ft 424 kts 182°
2026-04-25 10:21 40.54053 -87.65198 39947 ft 423 kts 182°
2026-04-25 10:21 40.48205 -87.64647 39948 ft 423 kts 182°
2026-04-25 10:22 40.42330 -87.64095 39942 ft 423 kts 182°
2026-04-25 10:22 40.36453 -87.63544 39954 ft 423 kts 182°
2026-04-25 10:23 40.30564 -87.62992 39962 ft 424 kts 182°
2026-04-25 10:23 40.24671 -87.62441 39965 ft 425 kts 182°
2026-04-25 10:24 40.18764 -87.61890 39957 ft 426 kts 182°
2026-04-25 10:24 40.12851 -87.61339 39970 ft 426 kts 182°
2026-04-25 10:25 40.06963 -87.60791 39936 ft 427 kts 182°
2026-04-25 10:25 40.01027 -87.60240 39934 ft 428 kts 182°
2026-04-25 10:26 39.95081 -87.59688 39935 ft 428 kts 182°
2026-04-25 10:26 39.89132 -87.59137 39938 ft 428 kts 182°
2026-04-25 10:27 39.83186 -87.58587 39941 ft 428 kts 182°
2026-04-25 10:27 39.77233 -87.58038 39931 ft 428 kts 182°
2026-04-25 10:28 39.71296 -87.57491 39945 ft 427 kts 182°
2026-04-25 10:28 39.65395 -87.56949 39944 ft 427 kts 182°
2026-04-25 10:29 39.59463 -87.56405 39941 ft 427 kts 182°
2026-04-25 10:29 39.53539 -87.55862 39918 ft 427 kts 182°
2026-04-25 10:30 39.47615 -87.55320 39918 ft 426 kts 182°
2026-04-25 10:30 39.41687 -87.54779 39924 ft 426 kts 182°
2026-04-25 10:31 39.36766 -87.54330 39915 ft 426 kts 182°
2026-04-25 10:31 39.29891 -87.53705 39910 ft 426 kts 182°
2026-04-25 10:32 39.23970 -87.53167 39922 ft 426 kts 182°
2026-04-25 10:32 39.19043 -87.52720 39921 ft 426 kts 182°
2026-04-25 10:33 39.13122 -87.52184 39921 ft 426 kts 182°
2026-04-25 10:33 39.07199 -87.51648 39908 ft 426 kts 182°
2026-04-25 10:34 39.01278 -87.51114 39923 ft 426 kts 182°
2026-04-25 10:34 38.95394 -87.50584 39923 ft 426 kts 182°
2026-04-25 10:35 38.89463 -87.50051 39922 ft 426 kts 182°
2026-04-25 10:35 38.83531 -87.49518 39914 ft 426 kts 182°
2026-04-25 10:36 38.77608 -87.48987 39928 ft 426 kts 182°
2026-04-25 10:36 38.71679 -87.48456 39926 ft 427 kts 182°
2026-04-25 10:37 38.65751 -87.47927 39923 ft 427 kts 182°
2026-04-25 10:37 38.59861 -87.47401 39918 ft 427 kts 183°
2026-04-25 10:38 38.53928 -87.46872 39921 ft 427 kts 183°
2026-04-25 10:38 38.47998 -87.46345 39920 ft 427 kts 183°
2026-04-25 10:39 38.42068 -87.45819 39916 ft 426 kts 184°
2026-04-25 10:39 38.36135 -87.45293 39909 ft 426 kts 184°
2026-04-25 10:40 38.30220 -87.44770 39908 ft 426 kts 184°
2026-04-25 10:40 38.24341 -87.44251 39771 ft 429 kts 184°
2026-04-25 10:40 38.21340 -87.43989 39325 ft 431 kts 184°
2026-04-25 10:41 38.18350 -87.43724 38777 ft 430 kts 184°
2026-04-25 10:41 38.15378 -87.43460 38167 ft 428 kts 184°
2026-04-25 10:41 38.12412 -87.43198 37571 ft 425 kts 184°
2026-04-25 10:41 38.09467 -87.42938 37003 ft 422 kts 184°
2026-04-25 10:42 38.06547 -87.42682 36453 ft 419 kts 183°
2026-04-25 10:42 38.03641 -87.42427 35874 ft 417 kts 183°
2026-04-25 10:42 38.00742 -87.42040 35245 ft 422 kts 176°
2026-04-25 10:42 37.97871 -87.41158 34722 ft 426 kts 169°
2026-04-25 10:43 37.95097 -87.39781 34125 ft 430 kts 164°
2026-04-25 10:43 37.92384 -87.38298 33398 ft 430 kts 163°
2026-04-25 10:43 37.89647 -87.36786 32754 ft 429 kts 163°
2026-04-25 10:43 37.86931 -87.35289 32302 ft 423 kts 163°
2026-04-25 10:44 37.84235 -87.33815 31797 ft 419 kts 163°
2026-04-25 10:44 37.81566 -87.32368 31308 ft 416 kts 163°
2026-04-25 10:44 37.78914 -87.30938 30848 ft 412 kts 163°
2026-04-25 10:44 37.76283 -87.29525 30394 ft 409 kts 163°
2026-04-25 10:45 37.73665 -87.28122 29934 ft 407 kts 163°
2026-04-25 10:45 37.71061 -87.26728 29404 ft 404 kts 163°
2026-04-25 10:45 37.68483 -87.25348 28930 ft 401 kts 163°
2026-04-25 10:45 37.65955 -87.23995 28460 ft 398 kts 163°
2026-04-25 10:46 37.63413 -87.22636 27993 ft 394 kts 163°
2026-04-25 10:46 37.60892 -87.21290 27549 ft 394 kts 163°
2026-04-25 10:46 37.58333 -87.19930 27085 ft 406 kts 163°
2026-04-25 10:46 37.55692 -87.18527 26624 ft 413 kts 162°
2026-04-25 10:47 37.53052 -87.17118 26121 ft 410 kts 162°
2026-04-25 10:47 37.50429 -87.15716 25633 ft 407 kts 162°
2026-04-25 10:47 37.47836 -87.14332 25165 ft 404 kts 162°
2026-04-25 10:47 37.45256 -87.12958 24698 ft 401 kts 162°
2026-04-25 10:48 37.42696 -87.11597 24218 ft 399 kts 162°
2026-04-25 10:48 37.40142 -87.10241 23757 ft 397 kts 162°
2026-04-25 10:48 37.37624 -87.08945 23247 ft 394 kts 166°
2026-04-25 10:48 37.34998 -87.08118 22756 ft 385 kts 176°
2026-04-25 10:49 37.32364 -87.07866 22357 ft 376 kts 186°
2026-04-25 10:49 37.29769 -87.07956 21979 ft 371 kts 187°
2026-04-25 10:49 37.27179 -87.08080 21604 ft 374 kts 187°
2026-04-25 10:49 37.24567 -87.08209 21223 ft 376 kts 187°
2026-04-25 10:50 37.21960 -87.08328 20849 ft 373 kts 186°
2026-04-25 10:50 37.19381 -87.08436 20454 ft 369 kts 186°
2026-04-25 10:50 37.16822 -87.08538 20082 ft 367 kts 186°
2026-04-25 10:50 37.14265 -87.08636 19719 ft 367 kts 186°
2026-04-25 10:51 37.11717 -87.08733 19349 ft 366 kts 185°
2026-04-25 10:51 37.09206 -87.08827 18982 ft 365 kts 185°
2026-04-25 10:51 37.06676 -87.08921 18614 ft 364 kts 185°
2026-04-25 10:51 37.04148 -87.09014 18233 ft 363 kts 185°
2026-04-25 10:52 37.01630 -87.09107 17830 ft 361 kts 185°
2026-04-25 10:52 36.99128 -87.09200 17429 ft 359 kts 185°
2026-04-25 10:52 36.96636 -87.09292 17069 ft 357 kts 185°
2026-04-25 10:52 36.94169 -87.09382 16776 ft 353 kts 185°
2026-04-25 10:53 36.91717 -87.09473 16424 ft 352 kts 185°
2026-04-25 10:53 36.89266 -87.09565 16069 ft 352 kts 185°
2026-04-25 10:53 36.86816 -87.09655 15723 ft 352 kts 185°
2026-04-25 10:53 36.84363 -87.09746 15370 ft 352 kts 185°
2026-04-25 10:54 36.81907 -87.09675 14989 ft 357 kts 173°
2026-04-25 10:54 36.80319 -87.09056 14696 ft 364 kts 159°
2026-04-25 10:54 36.77299 -87.07202 14118 ft 367 kts 156°
2026-04-25 10:54 36.75022 -87.05752 13664 ft 367 kts 155°
2026-04-25 10:55 36.72748 -87.04319 13163 ft 365 kts 156°
2026-04-25 10:55 36.70484 -87.02918 12682 ft 362 kts 156°
2026-04-25 10:55 36.68230 -87.01537 12232 ft 358 kts 156°
2026-04-25 10:55 36.66000 -87.00174 11763 ft 355 kts 156°
2026-04-25 10:56 36.63781 -86.98821 11268 ft 353 kts 156°
2026-04-25 10:56 36.61718 -86.97256 10760 ft 345 kts 139°
2026-04-25 10:56 36.60272 -86.94973 10298 ft 338 kts 118°
2026-04-25 10:56 36.59404 -86.92302 9874 ft 328 kts 110°
2026-04-25 10:57 36.58700 -86.89703 9871 ft 305 kts 109°
2026-04-25 10:57 36.58048 -86.87262 9738 ft 290 kts 109°
2026-04-25 10:57 36.57419 -86.84945 9632 ft 275 kts 110°
2026-04-25 10:57 36.56814 -86.82752 9522 ft 261 kts 110°
2026-04-25 10:58 36.56222 -86.80638 9184 ft 258 kts 110°
2026-04-25 10:58 36.55626 -86.78521 8730 ft 260 kts 110°
2026-04-25 10:58 36.55024 -86.76388 8293 ft 262 kts 110°
2026-04-25 10:58 36.54442 -86.74236 7854 ft 263 kts 108°
2026-04-25 10:59 36.53891 -86.72085 7594 ft 256 kts 108°
2026-04-25 10:59 36.53373 -86.70057 7446 ft 245 kts 108°
2026-04-25 10:59 36.52858 -86.68049 7153 ft 242 kts 108°
2026-04-25 10:59 36.52220 -86.66127 6858 ft 239 kts 117°
2026-04-25 11:00 36.51373 -86.64351 6647 ft 239 kts 125°
2026-04-25 11:00 36.50344 -86.62735 6474 ft 237 kts 133°
2026-04-25 11:00 36.49161 -86.61309 6302 ft 237 kts 140°
2026-04-25 11:00 36.47833 -86.60092 6118 ft 236 kts 148°
2026-04-25 11:01 36.46392 -86.59117 5934 ft 235 kts 156°
2026-04-25 11:01 36.44884 -86.58404 5779 ft 234 kts 164°
2026-04-25 11:01 36.43306 -86.57946 5614 ft 232 kts 172°
2026-04-25 11:01 36.41704 -86.57756 5444 ft 231 kts 179°
2026-04-25 11:02 36.40101 -86.57830 5277 ft 230 kts 187°
2026-04-25 11:02 36.38531 -86.58158 5108 ft 228 kts 194°
2026-04-25 11:02 36.37020 -86.58701 4928 ft 223 kts 199°
2026-04-25 11:02 36.35566 -86.59284 4729 ft 216 kts 198°
2026-04-25 11:03 36.34155 -86.59842 4513 ft 209 kts 198°
2026-04-25 11:03 36.32800 -86.60384 4356 ft 199 kts 199°
2026-04-25 11:03 36.31478 -86.60916 4160 ft 205 kts 198°
2026-04-25 11:03 36.30125 -86.61451 3896 ft 203 kts 198°
2026-04-25 11:04 36.28785 -86.61977 3615 ft 200 kts 198°
2026-04-25 11:04 36.27463 -86.62494 3357 ft 198 kts 198°
2026-04-25 11:04 36.26157 -86.63006 3105 ft 196 kts 197°
2026-04-25 11:04 36.25292 -86.63345 2929 ft 197 kts 197°
2026-04-25 11:05 36.23545 -86.64030 2580 ft 197 kts 197°
2026-04-25 11:05 36.22240 -86.64541 2328 ft 196 kts 197°
2026-04-25 11:05 36.20947 -86.65048 2057 ft 192 kts 197°
2026-04-25 11:05 36.19706 -86.65535 1814 ft 181 kts 197°
2026-04-25 11:06 36.18576 -86.65978 1599 ft 165 kts 197°
2026-04-25 11:06 36.17541 -86.66384 1367 ft 150 kts 197°
2026-04-25 11:06 36.16563 -86.66767 1165 ft 146 kts 197°
2026-04-25 11:06 36.15601 -86.67144 972 ft 144 kts 197°
2026-04-25 11:07 36.14647 -86.67519 789 ft 144 kts 198°
2026-04-25 11:07 36.13682 -86.67897 602 ft 146 kts 198°
2026-04-25 11:07 36.12735 -86.68269 580 ft 134 kts 198°
2026-04-25 11:07 36.12186 -86.68484 586 ft 53 kts 197°
2026-04-25 11:08 36.11948 -86.68578 590 ft 30 kts 198°
2026-04-25 11:08 36.11808 -86.68630 592 ft 13 kts 186°
2026-04-25 11:08 36.11761 -86.68570 593 ft 10 kts 110°
2026-04-25 11:08 36.11740 -86.68494 593 ft 9 kts 102°
2026-04-25 11:09 36.11768 -86.68433 592 ft 10 kts 28°
2026-04-25 11:09 36.11853 -86.68398 591 ft 17 kts 18°
2026-04-25 11:09 36.11989 -86.68348 589 ft 23 kts 16°
2026-04-25 11:09 36.12149 -86.68292 586 ft 24 kts 16°
2026-04-25 11:10 36.12309 -86.68235 584 ft 24 kts 16°
2026-04-25 11:10 36.12360 -86.68217 583 ft 23 kts 16°
2026-04-25 11:10 36.12617 -86.68125 578 ft 23 kts 16°
2026-04-25 11:10 36.12729 -86.68082 579 ft 11 kts 32°
2026-04-25 11:11 36.12723 -86.67997 579 ft 12 kts 127°
2026-04-25 11:11 36.12667 -86.67921 581 ft 12 kts 134°
2026-04-25 11:11 36.12607 -86.67843 580 ft 13 kts 133°
2026-04-25 11:11 36.12542 -86.67757 581 ft 15 kts 133°
2026-04-25 11:12 36.12487 -86.67671 582 ft 9 kts 101°
2026-04-25 11:12 36.12519 -86.67604 581 ft 12 kts 44°
2026-04-25 11:12 36.12615 -86.67503 578 ft 18 kts 32°
2026-04-25 11:12 36.12714 -86.67432 577 ft 15 kts 35°
2026-04-25 11:13 36.12795 -86.67342 579 ft 12 kts 43°
2026-04-25 11:13 36.12814 -86.67245 573 ft 13 kts 119°
2026-04-25 11:13 36.12760 -86.67158 574 ft 13 kts 128°
2026-04-25 11:13 36.12703 -86.67077 576 ft 12 kts 131°
2026-04-25 11:14 36.12648 -86.67001 575 ft 12 kts 131°
2026-04-25 11:14 36.12598 -86.66925 577 ft 11 kts 116°
2026-04-25 11:14 36.12640 -86.66832 571 ft 16 kts 41°
2026-04-25 11:14 36.12732 -86.66731 571 ft 18 kts 41°
2026-04-25 11:15 36.12825 -86.66678 572 ft 10 kts 38°
2026-04-25 11:15 36.12840 -86.66662 571 ft 1 kts 41°
2026-04-25 11:15 36.12856 -86.66644 570 ft 0 kts 40°